Waarnemingen

Advertentie
Mijn weer
Charlwood, Groot Brittannië (3769): temperatuur & dauwpunt: 15.02.2018 15:00:00 - 21.02.2018 15:00:00 (GMT)Charlwood, Groot Brittannië (3769): temperatuur -20cm & temperatuur -100cm: 15.02.2018 15:00:00 - 21.02.2018 15:00:00 (GMT)Charlwood, Groot Brittannië (3769): windsnelheid & windstoten: 15.02.2018 15:00:00 - 21.02.2018 15:00:00 (GMT)Charlwood, Groot Brittannië (3769): windrichting: 15.02.2018 15:00:00 - 21.02.2018 15:00:00 (GMT)Charlwood, Groot Brittannië (3769): luchtdruk: 15.02.2018 15:00:00 - 21.02.2018 15:00:00 (GMT)Charlwood, Groot Brittannië (3769): zicht: 15.02.2018 15:00:00 - 21.02.2018 15:00:00 (GMT)Charlwood, Groot Brittannië (3769): Zonneschijnduur: 15.02.2018 15:00:00 - 21.02.2018 15:00:00 (GMT)Charlwood, Groot Brittannië (3769): neerslag: 15.02.2018 15:00:00 - 21.02.2018 15:00:00 (GMT)
Datum & Tijd tt [°C] td [°C] tt -20cm [°C] tt -100cm [°C] ff [km/u] ff [kn] fx [km/u] fx [kn] dd ppp [hPa] vv [km] sd [min] rr [mm]
21.02.2018 15:00:00 - - - - - - - - - - - - 0,0
21.02.2018 14:00:00 6,2 0,8 - - 15 8 - - NNO 1026,2 9 12 0,0
21.02.2018 13:00:00 7,2 1,8 - - 15 8 - - NO 1026,7 9 36 0,0
21.02.2018 12:00:00 5,9 1,0 - - 15 8 - - NO 1027,4 8 18 0,0
21.02.2018 11:00:00 5,5 1,1 - - 15 8 - - NO 1027,5 8 60 0,0
21.02.2018 10:00:00 4,1 1,8 - - 15 8 - - NO 1027,6 4,7 60 0,0
21.02.2018 09:00:00 2,2 1,0 5,7 6,2 9 5 - - NO 1027,4 3,2 18 0,0
21.02.2018 08:00:00 0,7 0,0 - - 8 4 - - N 1027,1 2,4 0 0,0
21.02.2018 07:00:00 0,7 -0,3 - - 8 4 - - N 1027,0 2,6 0 0,0
21.02.2018 06:00:00 1,1 -0,1 - - 9 5 - - NNO 1026,8 3,4 0 0,0
21.02.2018 05:00:00 1,6 0,3 - - 11 6 - - NNO 1026,6 3,9 0 0,0
21.02.2018 04:00:00 2,0 0,4 - - 9 5 - - NNO 1026,6 5 0 0,0
21.02.2018 03:00:00 2,8 0,7 - - 9 5 - - N 1026,3 6 0 0,0
21.02.2018 02:00:00 3,9 1,6 - - 11 6 - - NNO 1026,1 7 0 0,0
21.02.2018 01:00:00 4,4 1,8 - - 15 8 - - NO 1025,7 11 0 0,0
21.02.2018 00:00:00 4,9 2,5 - - 16 9 - - NO 1025,1 18 - 0,0
20.02.2018 23:00:00 5,3 2,6 - - 13 7 - - NO 1024,5 35 0 0,0
20.02.2018 22:00:00 5,9 3,7 - - 24 13 - - NNO 1023,6 26 0 0,0
20.02.2018 21:00:00 6,6 3,4 - - 22 12 - - NNO 1022,7 45 0 0,0
20.02.2018 20:00:00 7,0 3,1 - - 21 11 52 28 N 1022,1 45 0 0,0
20.02.2018 19:00:00 7,3 2,6 - - 24 13 50 27 N 1021,6 45 0 0,2
20.02.2018 18:00:00 7,3 3,5 - - 15 8 - - N 1021,2 30 0 0,0
20.02.2018 17:00:00 6,9 3,9 - - 11 6 - - N 1021,1 16 0 0,6
20.02.2018 16:00:00 8,4 2,3 - - 11 6 - - N 1020,4 20 0 0,0
20.02.2018 15:00:00 8,4 2,2 - - 13 7 - - N 1020,4 30 12 0,0
20.02.2018 14:00:00 8,8 3,1 - - 21 11 - - N 1020,3 35 24 0,0
20.02.2018 13:00:00 8,6 4,3 - - 15 8 - - N 1020,2 30 6 0,0
20.02.2018 12:00:00 7,8 5,5 - - 15 8 - - N 1020,1 24 0 0,0
20.02.2018 11:00:00 7,1 6,0 - - 13 7 - - NNW 1020,1 12 0 1,0
20.02.2018 10:00:00 7,6 6,4 - - 11 6 - - NNW 1019,5 6 0 0,0
20.02.2018 09:00:00 8,2 7,0 5,7 6,2 15 8 - - NNW 1018,8 9 0 0,0
20.02.2018 08:00:00 8,2 7,2 - - 8 4 - - NNW 1018,6 5 0 0,0
20.02.2018 07:00:00 8,3 7,5 - - 9 5 - - NNW 1018,2 5 0 0,0
20.02.2018 06:00:00 8,4 8,0 - - 8 4 - - N 1017,7 2,0 0 0,0
20.02.2018 05:00:00 8,4 8,1 - - 5 3 - - N 1017,7 1,9 0 0,6
20.02.2018 04:00:00 8,5 8,1 - - 5 3 - - NNW 1017,3 2,1 0 0,6
20.02.2018 03:00:00 8,7 8,2 - - 8 4 - - NNW 1017,0 2,3 0 0,0
20.02.2018 02:00:00 8,8 8,3 - - 9 5 - - NNW 1016,8 2,5 0 0,2
20.02.2018 01:00:00 8,9 8,4 - - 9 5 - - NW 1016,8 1,7 0 0,2
20.02.2018 00:00:00 9,3 8,1 - - 8 4 - - NNW 1016,7 6 - 0,0
19.02.2018 23:00:00 9,5 8,3 - - 9 5 - - N 1016,3 7 0 0,0
19.02.2018 22:00:00 9,4 8,4 - - 9 5 - - NNW 1016,0 3,1 0 0,0
19.02.2018 21:00:00 9,8 8,2 - - 9 5 - - NNW 1016,2 9 0 0,0
19.02.2018 20:00:00 9,9 8,8 - - 5 3 - - NW 1016,2 8 0 0,0
19.02.2018 19:00:00 10,0 9,1 - - 5 3 - - NW 1016,3 8 0 0,0
19.02.2018 18:00:00 10,1 9,4 - - 9 5 - - NW 1016,0 9 0 0,2
19.02.2018 17:00:00 10,3 9,4 - - 9 5 - - NW 1015,7 3,4 0 0,0
19.02.2018 16:00:00 10,6 9,5 - - 8 4 - - WNW 1015,5 13 0 0,0
19.02.2018 15:00:00 10,3 9,6 - - 9 5 - - WNW 1015,7 9 0 0,0
19.02.2018 14:00:00 9,9 9,4 - - 5 3 - - WNW 1015,9 4,7 0 0,2
19.02.2018 13:00:00 9,0 8,7 - - 8 4 - - W 1016,2 3,4 0 0,4
19.02.2018 12:00:00 8,2 7,9 - - 9 5 - - WZW 1016,8 2,1 0 0,2
19.02.2018 11:00:00 7,6 7,3 - - 8 4 - - WZW 1017,1 1,9 0 0,0
19.02.2018 10:00:00 7,3 7,1 - - 8 4 - - WZW 1017,1 1,7 0 0,0
19.02.2018 09:00:00 7,0 6,8 4,7 6,2 8 4 - - ZW 1017,4 2,4 0 0,2
19.02.2018 08:00:00 6,6 6,5 - - 4 2 - - ZW 1017,5 1,7 0 0,4
19.02.2018 07:00:00 6,4 6,2 - - 4 2 - - ZW 1017,5 1,4 0 0,0
19.02.2018 06:00:00 6,2 5,9 - - 4 2 - - ZZW 1017,5 1,7 0 0,2
19.02.2018 05:00:00 5,8 5,5 - - 2 1 - - ZW 1017,7 1,9 0 0,2
19.02.2018 04:00:00 5,8 5,4 - - 0 0 - - N 1018,1 0,1 0 0,0
19.02.2018 03:00:00 6,1 5,6 - - 0 0 - - N 1018,4 0,1 0 0,0
19.02.2018 02:00:00 6,3 5,7 - - 2 1 - - ZW 1018,8 0,1 0 0,0
19.02.2018 01:00:00 6,4 5,9 - - 2 1 - - WZW 1019,1 2,2 0 0,0
19.02.2018 00:00:00 6,2 5,6 - - 4 2 - - ZZW 1019,6 4,5 - 0,0
18.02.2018 23:00:00 6,0 5,1 - - 0 0 - - N 1019,8 3,2 0 0,0
18.02.2018 22:00:00 6,2 5,2 - - 4 2 - - ZZO 1020,2 7 0 0,0
18.02.2018 21:00:00 6,2 5,0 - - 4 2 - - ZZO 1020,6 10 0 0,0
18.02.2018 20:00:00 5,9 4,6 - - 2 1 - - ZZO 1020,9 9 0 0,0
18.02.2018 19:00:00 6,4 4,9 - - 8 4 - - Z 1021,3 10 0 0,0
18.02.2018 18:00:00 6,7 4,5 - - 5 3 - - Z 1021,2 16 0 0,0
18.02.2018 17:00:00 7,4 4,2 - - 9 5 - - Z 1021,2 35 0 0,0
18.02.2018 16:00:00 8,8 4,5 - - 13 7 - - Z 1020,9 30 18 0,0
18.02.2018 15:00:00 8,8 4,2 - - 11 6 - - Z 1021,2 30 0 0,0
18.02.2018 14:00:00 9,4 4,2 - - 13 7 - - ZZO 1021,1 30 0 0,0
18.02.2018 13:00:00 9,7 4,6 - - 11 6 - - Z 1021,4 20 6 0,0
18.02.2018 12:00:00 9,8 4,7 - - 11 6 - - Z 1021,8 22 30 0,0
18.02.2018 11:00:00 9,2 5,9 - - 11 6 - - Z 1022,0 22 42 0,0
18.02.2018 10:00:00 6,8 6,7 - - 4 2 - - OZO 1022,3 12 60 0,0
18.02.2018 09:00:00 1,7 1,7 4,0 6,2 2 1 - - NNO 1022,7 6 30 0,0
18.02.2018 08:00:00 -1,4 -1,7 - - 2 1 - - NO 1023,0 3,4 0 0,0
18.02.2018 07:00:00 -1,3 -1,5 - - 2 1 - - W 1023,1 3,5 0 0,0
18.02.2018 06:00:00 -1,0 -1,2 - - 4 2 - - NNW 1022,6 2,8 0 0,0
18.02.2018 05:00:00 -1,7 -2,0 - - 2 1 - - NNO 1023,0 0,6 0 0,0
18.02.2018 04:00:00 -1,6 -1,9 - - 0 0 - - N 1023,2 2,6 0 0,0
18.02.2018 03:00:00 -1,5 -1,8 - - 0 0 - - N 1023,2 1,4 0 0,0
18.02.2018 02:00:00 -1,3 -1,6 - - 2 1 - - NNW 1023,8 2,4 0 0,0
18.02.2018 01:00:00 -0,5 -0,9 - - 2 1 - - N 1023,7 2,4 0 0,0
18.02.2018 00:00:00 -0,1 -0,8 - - 2 1 - - NO 1023,7 5 - 0,0
17.02.2018 23:00:00 1,3 0,6 - - 4 2 - - ZW 1023,9 8 0 0,0
17.02.2018 22:00:00 3,0 1,5 - - 2 1 - - ZZW 1023,9 10 0 0,0
17.02.2018 21:00:00 4,6 3,2 - - 8 4 - - ZW 1023,7 14 0 0,0
17.02.2018 20:00:00 3,4 1,9 - - 5 3 - - ZW 1023,6 16 0 0,0
17.02.2018 19:00:00 2,6 0,4 - - 4 2 - - ZW 1023,5 17 0 0,0
17.02.2018 18:00:00 5,1 1,5 - - 8 4 - - ZW 1023,1 18 0 0,0
17.02.2018 17:00:00 6,9 1,5 - - 9 5 - - ZW 1022,7 30 12 0,0
17.02.2018 16:00:00 9,5 2,3 - - 8 4 - - Z 1022,3 15 48 0,0
17.02.2018 15:00:00 10,2 1,1 - - 9 5 - - ZW 1022,3 30 60 0,0
17.02.2018 14:00:00 9,5 -0,3 - - 11 6 - - ZW 1022,3 45 60 0,0
17.02.2018 13:00:00 10,3 1,5 - - 8 4 - - ZZW 1022,3 25 60 0,0
17.02.2018 12:00:00 8,7 1,5 - - 4 2 - - N 1022,7 21 60 0,0
17.02.2018 11:00:00 8,5 4,1 - - 4 2 - - ZO 1022,6 24 60 0,2
17.02.2018 10:00:00 3,9 3,4 - - 4 2 - - ONO 1022,5 11 60 0,0
17.02.2018 09:00:00 1,2 1,1 4,0 6,2 2 1 - - O 1022,0 4,2 42 0,0
17.02.2018 08:00:00 -1,0 -1,2 - - 0 0 - - N 1022,0 0,4 0 0,0
17.02.2018 07:00:00 -0,8 -1,1 - - 2 1 - - NO 1021,8 0,1 0 0,0
17.02.2018 06:00:00 -0,8 -1,1 - - 4 2 - - N 1021,5 1,0 0 0,0
17.02.2018 05:00:00 -0,3 -0,6 - - 4 2 - - NO 1021,4 1,4 0 0,0
17.02.2018 04:00:00 0,6 0,3 - - 4 2 - - NO 1021,4 4,2 0 0,0
17.02.2018 03:00:00 0,1 -0,3 - - 4 2 - - N 1021,6 6 0 0,0
17.02.2018 02:00:00 0,5 0,1 - - 4 2 - - NNO 1022,2 8 0 0,0
17.02.2018 01:00:00 0,2 -0,4 - - 2 1 - - N 1022,5 7 0 0,0
17.02.2018 00:00:00 0,8 -0,3 - - 2 1 - - ONO 1022,9 10 - 0,0
16.02.2018 23:00:00 2,1 1,1 - - 4 2 - - O 1023,3 12 0 0,0
16.02.2018 22:00:00 1,4 0,4 - - 5 3 - - ZZW 1023,6 14 0 0,0
16.02.2018 21:00:00 1,0 0,3 - - 2 1 - - Z 1023,6 12 0 0,0
16.02.2018 20:00:00 1,2 0,2 - - 2 1 - - ZZW 1024,0 13 0 0,0
16.02.2018 19:00:00 2,7 0,8 - - 4 2 - - ZZW 1024,6 14 0 0,0
16.02.2018 18:00:00 4,4 1,6 - - 8 4 - - ZZW 1024,8 18 0 0,0
16.02.2018 17:00:00 6,2 1,4 - - 9 5 - - Z 1024,5 24 0 0,0
16.02.2018 16:00:00 8,1 0,6 - - 9 5 - - ZZW 1024,5 35 24 0,0
16.02.2018 15:00:00 10,0 0,2 - - 8 4 - - ZW 1024,7 40 60 0,0
16.02.2018 14:00:00 9,4 -0,9 - - 9 5 - - ZW 1025,1 30 60 0,0
16.02.2018 13:00:00 9,6 1,3 - - 11 6 - - ZZW 1026,0 29 60 0,0
16.02.2018 12:00:00 7,7 0,8 - - 9 5 - - WZW 1026,5 17 60 0,0
16.02.2018 11:00:00 7,6 3,0 - - 8 4 - - ZW 1026,5 25 60 0,0
16.02.2018 10:00:00 5,1 1,8 - - 5 3 - - W 1026,3 17 60 0,0
16.02.2018 09:00:00 2,9 1,7 4,4 6,2 9 5 - - WZW 1026,1 13 54 0,0
16.02.2018 08:00:00 -0,5 -0,7 - - 9 5 - - ZW 1025,7 9 0 0,0
16.02.2018 07:00:00 -2,7 -3,3 - - 2 1 - - ZZO 1025,1 11 0 0,0
16.02.2018 06:00:00 -2,3 -3,0 - - 5 3 - - ZZW 1024,3 10 0 0,0
16.02.2018 05:00:00 -0,6 -1,4 - - 5 3 - - WZW 1023,9 13 0 0,0
16.02.2018 04:00:00 -0,7 -2,0 - - 8 4 - - ZW 1023,5 14 0 0,0
16.02.2018 03:00:00 1,6 -0,1 - - 9 5 - - WZW 1022,9 18 0 0,0
16.02.2018 02:00:00 1,2 -0,2 - - 8 4 - - WZW 1022,0 17 0 0,0
16.02.2018 01:00:00 0,9 -1,0 - - 9 5 - - WZW 1021,5 17 0 0,0
16.02.2018 00:00:00 1,9 -0,1 - - 9 5 - - WZW 1020,9 17 - 0,0
15.02.2018 23:00:00 2,3 -0,4 - - 8 4 - - ZW 1020,3 18 0 0,0
15.02.2018 22:00:00 1,8 -0,2 - - 9 5 - - ZW 1019,4 15 0 0,0
15.02.2018 21:00:00 1,8 -0,4 - - 5 3 - - W 1018,6 16 0 0,0
15.02.2018 20:00:00 2,6 -1,0 - - 5 3 - - ZZW 1017,9 15 0 0,0
15.02.2018 19:00:00 3,5 -0,8 - - 8 4 - - ZW 1017,3 16 0 0,0
15.02.2018 18:00:00 5,2 0,0 - - 8 4 - - W 1016,4 18 0 0,0
15.02.2018 17:00:00 6,6 1,0 - - 9 5 48 26 W 1015,4 24 0 0,0
15.02.2018 16:00:00 8,7 -0,8 - - 21 11 - - W 1014,1 30 36 0,0
15.02.2018 15:00:00 9,4 -0,7 - - 18 10 - - W 1013,3 45 60 0,0

tt = temperatuur
td = dauwpunt
tt -20cm = temperatuur -20cm
tt -100cm = temperatuur -100cm
ff = windsnelheid
fx = windstoten
dd = windrichting
ppp = luchtdruk
vv = zicht
sd = Zonneschijnduur
rr = neerslag

Weerstations in de omgeving